[[{"header":{"parameterUnit":"m.s-1","parameterCategory":1,"la1":30.2991,"la2":30.254,"lo1":-89.0895,"lo2":-89.0444,"dy":0.0017,"dx":0.0017,"nx":28,"ny":28,"refTime":"2024-05-20T09:00:00:Z","depth":0,"parameterNumber":2,"parameterNumberName":"U-component_of_WINDS"},"data":[0,0,0,0,0,0,0,0,0,0,0,0,0,0,0,0,0,0,0,0,0,0,0,0,0,0,0,0,0,0,0,0,0,0,0,0,0,0,0,0,0,0,0,0,0,0,0,0,0,0,0,0,0,0,0,0,0,0,-1.6983,-1.6982,0,-1.6945,-1.6944,-1.6944,-1.6882,-1.6881,-1.688,-1.6879,-1.684,-1.684,-1.684,0,0,0,0,0,0,0,0,0,0,0,0,0,-1.7002,-1.7002,-1.6983,-1.6982,-1.6982,-1.6945,-1.6944,-1.6944,-1.6883,-1.6881,-1.688,-1.6879,-1.684,-1.684,-1.684,0,0,0,0,0,0,0,0,0,0,0,0,0,-1.6982,-1.7002,-1.6983,-1.6947,-1.6943,-1.6945,-1.6944,-1.6944,-1.6883,-1.6881,-1.6879,-1.6878,-1.684,-1.684,-1.684,-1.6874,0,0,-1.684,-1.684,0,0,0,0,0,0,0,0,-1.6983,-1.6981,-1.6952,-1.6949,-1.6945,-1.6917,-1.6937,-1.692,-1.6883,-1.6906,-1.6879,-1.6877,-1.6867,-1.6865,-1.6861,-1.6872,-1.6871,-1.684,-1.684,-1.684,-1.684,0,0,0,0,0,0,0,-1.6985,-1.6983,-1.6968,-1.6952,-1.6948,-1.6932,-1.6928,-1.6933,-1.6896,-1.6904,-1.6899,-1.6895,-1.6865,-1.6861,-1.686,-1.687,-1.684,-1.684,-1.684,-1.684,-1.6908,-1.6909,0,0,0,0,0,0,-1.6991,-1.6984,-1.6969,-1.6966,-1.696,-1.6934,-1.6928,-1.6927,-1.6896,-1.689,-1.6897,-1.6893,-1.6862,-1.686,-1.6858,-1.6896,-1.684,-1.684,-1.684,-1.6906,-1.6908,-1.691,0,0,0,0,0,0,-1.6992,-1.6991,-1.697,-1.6974,-1.697,-1.6935,-1.6935,-1.6928,-1.6924,-1.6891,-1.6884,-1.69,-1.6861,-1.6858,-1.6871,-1.6894,-1.684,-1.684,-1.6904,-1.6907,-1.6909,-1.6972,0,0,0,0,0,0,-1.6993,-1.6991,-1.7004,-1.6975,-1.697,-1.6984,-1.6936,-1.6928,-1.6924,-1.6919,-1.6892,-1.6886,-1.6859,-1.6871,-1.6871,-1.6893,-1.684,-1.6902,-1.6905,-1.6908,-1.6968,-1.6977,-1.6984,0,0,0,0,0,-1.6994,-1.7023,-1.7004,-1.7003,-1.6985,-1.6985,-1.6982,-1.6951,-1.6927,-1.6939,-1.6918,-1.6887,-1.6892,-1.6873,-1.6872,-1.6895,-1.69,-1.6904,-1.6908,-1.6964,-1.6975,-1.6984,0,0,0,0,0,0,-1.7055,-1.7018,-1.6998,-1.7018,-1.7005,-1.6975,-1.6989,-1.6963,-1.6956,-1.6951,-1.6912,-1.6907,-1.6924,-1.6911,-1.689,-1.6926,-1.6891,-1.6895,-1.6934,-1.6944,-1.6952,-1.6955,-1.684,0,0,0,0,0,-1.7071,-1.7074,-1.7041,-1.7063,-1.7057,-1.7025,-1.7023,-1.7,-1.6985,-1.6979,-1.6959,-1.6945,-1.6943,-1.6943,-1.694,-1.6966,-1.6959,-1.6981,-1.6989,-1.6996,-1.7,-1.7013,-1.7022,-1.6923,-1.6923,-1.6923,0,0,-1.7103,-1.7084,-1.7088,-1.7075,-1.7062,-1.7066,-1.702,-1.7026,-1.7029,-1.698,-1.699,-1.6975,-1.6958,-1.6978,-1.6985,-1.6967,-1.7026,-1.7001,-1.7007,-1.7007,-1.7018,-1.7028,-1.7036,-1.6926,-1.6925,-1.6925,0,0,-1.7165,-1.7151,-1.7167,-1.7155,-1.7136,-1.7115,-1.7119,-1.7092,-1.708,-1.7091,-1.7054,-1.7057,-1.7055,-1.7044,-1.7038,-1.7097,-1.7069,-1.7097,-1.7139,-1.7153,-1.716,-1.7167,-1.7188,-1.7196,-1.7101,-1.7101,-1.7101,0,-1.7208,-1.7212,-1.7178,-1.7187,-1.7182,-1.7139,-1.7155,-1.7145,-1.7127,-1.7124,-1.7104,-1.7101,-1.7086,-1.7103,-1.7117,-1.7114,-1.7118,-1.7099,-1.7162,-1.7168,-1.7174,-1.7194,-1.7202,-1.7104,-1.7104,-1.7104,-1.7103,0,-1.7266,-1.727,-1.7285,-1.7269,-1.7266,-1.7278,-1.7246,-1.7248,-1.7225,-1.7206,-1.7217,-1.7198,-1.719,-1.7192,-1.717,-1.7206,-1.7195,-1.7169,-1.7133,-1.7188,-1.7205,-1.7213,-1.711,-1.7108,-1.7107,-1.7106,0,0,-1.7364,-1.7329,-1.7336,-1.7328,-1.7304,-1.7307,-1.7318,-1.731,-1.7312,-1.7301,-1.7309,-1.7309,-1.7285,-1.7278,-1.7255,-1.7266,-1.7314,-1.7239,-1.7238,-1.7254,-1.7353,-1.7373,-1.7382,-1.7296,-1.7297,-1.7298,-1.7355,0,-1.7421,-1.7437,-1.7407,-1.7431,-1.7434,-1.7393,-1.7402,-1.7389,-1.7372,-1.7372,-1.7352,-1.7353,-1.7321,-1.7317,-1.7327,-1.7307,-1.7334,-1.7302,-1.7303,-1.7304,-1.7308,-1.7391,-1.7411,-1.7465,-1.7361,-1.7362,-1.7363,0,-1.7489,-1.7482,-1.7505,-1.7481,-1.7481,-1.749,-1.7481,-1.7482,-1.7467,-1.7453,-1.7447,-1.7419,-1.7428,-1.7394,-1.7406,-1.7385,-1.7384,-1.7374,-1.7376,-1.7374,-1.7336,-1.7391,-1.7482,-1.749,-1.7374,-1.7373,-1.7372,0,-1.7558,-1.7554,-1.7568,-1.7562,-1.7535,-1.7542,-1.7531,-1.7514,-1.7511,-1.7504,-1.7502,-1.7495,-1.7492,-1.7488,-1.7459,-1.7437,-1.7475,-1.7438,-1.7464,-1.7464,-1.7473,-1.7473,-1.7564,-1.7473,-1.7473,-1.7473,-1.7473,0,-1.7624,-1.764,-1.7599,-1.7607,-1.7624,-1.759,-1.7608,-1.7592,-1.7578,-1.7583,-1.7547,-1.7553,-1.7515,-1.7516,-1.7494,-1.7507,-1.7506,-1.7495,-1.7489,-1.7498,-1.75,-1.7497,-1.7492,-1.7475,-1.7474,-1.7474,-1.7474,0,-1.7704,-1.7677,-1.7689,-1.7662,-1.7656,-1.7669,-1.7646,-1.7653,-1.7634,-1.764,-1.764,-1.7609,-1.7609,-1.758,-1.7574,-1.7559,-1.7582,-1.7569,-1.7588,-1.7583,-1.761,-1.7608,-1.7702,-1.7713,-1.7616,-1.7617,-1.7618,0,-1.7748,-1.7759,-1.7734,-1.7734,-1.7725,-1.7727,-1.7724,-1.7691,-1.769,-1.7674,-1.7683,-1.768,-1.7676,-1.7678,-1.7655,-1.765,-1.7637,-1.767,-1.7636,-1.7645,-1.7637,-1.7637,-1.7638,-1.7677,-1.7679,-1.768,-1.7681,0,-1.7828,-1.7814,-1.7812,-1.7806,-1.7804,-1.7797,-1.7788,-1.7791,-1.7755,-1.7756,-1.7755,-1.7752,-1.7746,-1.7744,-1.7735,-1.7723,-1.7696,-1.7692,-1.7697,-1.7706,-1.7717,-1.7711,-1.7607,-1.7689,-1.7689,-1.7688,-1.7687,-1.7687,-1.7891,-1.79,-1.7883,-1.7882,-1.7872,-1.7865,-1.787,-1.7851,-1.785,-1.7843,-1.7824,-1.7827,-1.7811,-1.7797,-1.7788,-1.779,-1.7773,-1.7781,-1.7783,-1.7786,-1.7791,-1.7717,-1.7788,-1.7788,-1.7787,-1.7787,-1.7787,0,-1.797,-1.7957,-1.7957,-1.7946,-1.7945,-1.792,-1.7909,-1.791,-1.7913,-1.7901,-1.7898,-1.7898,-1.7895,-1.7873,-1.7868,-1.7874,-1.7861,-1.7874,-1.7873,-1.787,-1.7806,-1.7802,-1.7884,-1.7884,-1.7884,-1.7884,-1.7884,-1.7884,-1.8011,-1.8024,-1.8008,-1.8016,-1.8003,-1.8006,-1.8002,-1.7995,-1.7985,-1.7987,-1.7985,-1.797,-1.7954,-1.7948,-1.7945,-1.7938,-1.7938,-1.7955,-1.7944,-1.7884,-1.7875,-1.7866,-1.7862,-1.7955,-1.7955,-1.8008,-1.8009,-1.8009]},{"header":{"parameterUnit":"m.s-1","parameterCategory":1,"la1":30.2991,"la2":30.254,"lo1":-89.0895,"lo2":-89.0444,"dy":0.0017,"dx":0.0017,"nx":28,"ny":28,"refTime":"2024-05-20T09:00:00:Z","depth":0,"parameterNumber":3,"parameterNumberName":"V-component_of_WINDS"},"data":[0,0,0,0,0,0,0,0,0,0,0,0,0,0,0,0,0,0,0,0,0,0,0,0,0,0,0,0,0,0,0,0,0,0,0,0,0,0,0,0,0,0,0,0,0,0,0,0,0,0,0,0,0,0,0,0,0,0,1.6713,1.6713,0,1.6712,1.6712,1.6712,1.6704,1.6703,1.6703,1.6703,1.67,1.67,1.67,0,0,0,0,0,0,0,0,0,0,0,0,0,1.6708,1.6708,1.6713,1.6713,1.6713,1.6712,1.6712,1.6712,1.6704,1.6703,1.6703,1.6703,1.67,1.67,1.67,0,0,0,0,0,0,0,0,0,0,0,0,0,1.6709,1.6708,1.6713,1.6709,1.6709,1.6712,1.6712,1.6712,1.6704,1.6703,1.6703,1.6703,1.67,1.67,1.67,1.6707,0,0,1.6701,1.6701,0,0,0,0,0,0,0,0,1.6709,1.6709,1.671,1.6709,1.6709,1.6708,1.6709,1.671,1.6704,1.6705,1.6703,1.6703,1.6703,1.6703,1.6703,1.6707,1.6707,1.6701,1.6701,1.6701,1.6701,0,0,0,0,0,0,0,1.6709,1.6709,1.6712,1.671,1.6709,1.6707,1.6707,1.6709,1.6706,1.6705,1.6705,1.6705,1.6703,1.6703,1.6703,1.6707,1.6701,1.6701,1.6701,1.6701,1.6717,1.6717,0,0,0,0,0,0,1.6709,1.6709,1.6712,1.6712,1.6708,1.6707,1.6707,1.6708,1.6706,1.6705,1.6705,1.6704,1.6703,1.6703,1.6703,1.6711,1.6701,1.6701,1.6701,1.6716,1.6717,1.6717,0,0,0,0,0,0,1.6709,1.671,1.6713,1.6711,1.6711,1.6708,1.6709,1.6708,1.6709,1.6705,1.6705,1.6706,1.6703,1.6703,1.6706,1.6711,1.6701,1.6701,1.6716,1.6716,1.6717,1.6727,0,0,0,0,0,0,1.6709,1.671,1.6712,1.6711,1.6711,1.6716,1.6709,1.6708,1.6709,1.6708,1.6706,1.6706,1.6702,1.6706,1.6706,1.6711,1.6702,1.6715,1.6716,1.6717,1.6726,1.6727,1.6729,0,0,0,0,0,1.6709,1.6715,1.6713,1.6713,1.6714,1.6717,1.6717,1.6713,1.6709,1.6712,1.671,1.6706,1.671,1.6707,1.6707,1.6711,1.6715,1.6716,1.6717,1.6725,1.6727,1.6729,0,0,0,0,0,0,1.6716,1.6714,1.6712,1.6717,1.6717,1.6715,1.6718,1.6715,1.6716,1.6715,1.671,1.671,1.6714,1.6713,1.6709,1.6718,1.6712,1.6713,1.6718,1.672,1.6721,1.6722,1.6702,0,0,0,0,0,1.6719,1.6721,1.6719,1.6724,1.6724,1.6721,1.6722,1.672,1.6719,1.6719,1.6717,1.6717,1.6718,1.6719,1.672,1.6726,1.6725,1.6729,1.673,1.6731,1.6732,1.6736,1.6737,1.6719,1.6719,1.6719,0,0,1.6723,1.6723,1.6724,1.6726,1.6725,1.6728,1.6721,1.6724,1.6726,1.6719,1.6723,1.6722,1.6721,1.6726,1.6728,1.6725,1.6737,1.6732,1.6733,1.6733,1.6737,1.6738,1.674,1.672,1.672,1.672,0,0,1.6733,1.6733,1.6737,1.6737,1.6737,1.6735,1.6736,1.6735,1.6734,1.6738,1.6733,1.6735,1.6737,1.6737,1.6737,1.6748,1.6744,1.6748,1.6755,1.6759,1.676,1.6762,1.6766,1.6767,1.6749,1.6749,1.6749,0,1.6739,1.6743,1.674,1.6743,1.6744,1.6739,1.6743,1.6743,1.6743,1.6744,1.6741,1.6744,1.6743,1.6748,1.6751,1.6751,1.6752,1.6748,1.676,1.6762,1.6763,1.6767,1.6768,1.675,1.6749,1.6749,1.6749,0,1.675,1.6753,1.6756,1.6758,1.6759,1.6763,1.676,1.6761,1.6759,1.6757,1.6762,1.676,1.6761,1.6762,1.6759,1.6767,1.6765,1.6761,1.6755,1.6765,1.6769,1.677,1.675,1.675,1.675,1.675,0,0,1.6764,1.6764,1.6765,1.6766,1.6766,1.6768,1.6772,1.6773,1.6775,1.6775,1.6778,1.6781,1.6777,1.6777,1.6775,1.6778,1.6787,1.6773,1.6773,1.6776,1.6796,1.6799,1.6801,1.6784,1.6785,1.6785,1.6796,0,1.6774,1.6781,1.6779,1.6786,1.6788,1.6784,1.6787,1.6787,1.6786,1.6788,1.6787,1.6789,1.6784,1.6784,1.6787,1.6785,1.6791,1.6784,1.6787,1.6787,1.6788,1.6803,1.6806,1.6817,1.6798,1.6798,1.6798,0,1.6786,1.6788,1.6796,1.6796,1.6797,1.68,1.6802,1.6804,1.6804,1.6803,1.6803,1.68,1.6804,1.6798,1.6803,1.6799,1.68,1.6799,1.68,1.68,1.6793,1.6804,1.682,1.6822,1.68,1.68,1.68,0,1.6797,1.6801,1.6806,1.6806,1.6806,1.6809,1.6809,1.6809,1.681,1.6811,1.6812,1.6814,1.6815,1.6816,1.6813,1.6809,1.6819,1.6812,1.6818,1.6818,1.682,1.682,1.6837,1.682,1.682,1.682,1.682,0,1.6808,1.6813,1.6811,1.6814,1.6819,1.6816,1.6822,1.6821,1.6821,1.6824,1.682,1.6823,1.6819,1.6821,1.6819,1.6824,1.6824,1.6824,1.6823,1.6824,1.6824,1.6825,1.6824,1.6821,1.6821,1.6821,1.6821,0,1.682,1.6819,1.6824,1.6824,1.6824,1.6828,1.6828,1.6831,1.683,1.6834,1.6835,1.6833,1.6835,1.6833,1.6835,1.6833,1.684,1.6838,1.684,1.684,1.6846,1.6845,1.6864,1.6867,1.6848,1.6848,1.6848,0,1.6828,1.6832,1.6832,1.6834,1.6835,1.6838,1.684,1.6837,1.6839,1.684,1.6843,1.6845,1.6847,1.6852,1.685,1.6852,1.685,1.6857,1.6851,1.6852,1.6851,1.6851,1.6852,1.6858,1.6858,1.6859,1.6859,0,1.6842,1.6841,1.6844,1.6847,1.6849,1.6851,1.6852,1.6854,1.6851,1.6853,1.6857,1.6858,1.6861,1.6864,1.6865,1.6865,1.6862,1.6861,1.6862,1.6864,1.6865,1.6865,1.6844,1.686,1.686,1.686,1.686,1.686,1.6852,1.6856,1.6857,1.686,1.6861,1.6863,1.6866,1.6866,1.6868,1.6871,1.6869,1.6873,1.6873,1.6875,1.6876,1.6878,1.6876,1.6878,1.6878,1.6879,1.688,1.6864,1.6879,1.6878,1.6878,1.6878,1.6878,0,1.6866,1.6867,1.687,1.6873,1.6876,1.6873,1.6874,1.6877,1.688,1.6881,1.6884,1.6887,1.689,1.6889,1.6892,1.6894,1.6893,1.6895,1.6895,1.6895,1.6882,1.6881,1.6896,1.6896,1.6896,1.6896,1.6896,1.6896,1.6874,1.688,1.688,1.6886,1.6887,1.6891,1.6892,1.6894,1.6895,1.6899,1.6902,1.6901,1.6902,1.6904,1.6907,1.6906,1.6907,1.691,1.6909,1.6897,1.6896,1.6894,1.6893,1.691,1.691,1.6922,1.6922,1.6922]}]]